This is the latest recevied weather packets stored in our database for station/object OK1JRA-6. If no packets are shown the sender has not sent any weather packets the latest 1 day(s).
| Time | Temp. | Humidity | Pressure | Rain* | Wind** | Luminosity | Snow |
|---|---|---|---|---|---|---|---|
| 1777970848 | 27.22° C | 33% | 1008.3 hPa | 0 mm | 0.45 m/s, 129° | - | - |
| 1777970848 | 27.22° C | 33% | 1008.3 hPa | 0 mm | 0.45 m/s, 129° | - | - |
| 1777970545 | 26.67° C | 32% | 1008.3 hPa | 0 mm | 0.89 m/s, 155° | - | - |
| 1777970545 | 26.67° C | 32% | 1008.3 hPa | 0 mm | 0.89 m/s, 155° | - | - |
| 1777970542 | 26.67° C | 32% | 1008.3 hPa | 0 mm | 0.89 m/s, 155° | - | - |
| 1777970542 | 26.67° C | 32% | 1008.3 hPa | 0 mm | 0.89 m/s, 155° | - | - |
| 1777970542 | 26.67° C | 32% | 1008.3 hPa | 0 mm | 0.89 m/s, 155° | - | - |
| 1777970239 | 26.67° C | 33% | 1008.4 hPa | 0 mm | 0.89 m/s, 145° | - | - |
| 1777970239 | 26.67° C | 33% | 1008.4 hPa | 0 mm | 0.89 m/s, 145° | - | - |
| 1777970236 | 26.67° C | 33% | 1008.4 hPa | 0 mm | 0.89 m/s, 145° | - | - |
| 1777970235 | 26.67° C | 33% | 1008.4 hPa | 0 mm | 0.89 m/s, 145° | - | - |
| 1777969933 | 26.11° C | 35% | 1008.4 hPa | 0 mm | 0.45 m/s, 202° | - | - |
| 1777969933 | 26.11° C | 35% | 1008.4 hPa | 0 mm | 0.45 m/s, 202° | - | - |
| 1777969930 | 26.11° C | 35% | 1008.4 hPa | 0 mm | 0.45 m/s, 202° | - | - |
| 1777969929 | 26.11° C | 35% | 1008.4 hPa | 0 mm | 0.45 m/s, 202° | - | - |
| 1777969929 | 26.11° C | 35% | 1008.4 hPa | 0 mm | 0.45 m/s, 202° | - | - |
| 1777969627 | 25.56° C | 36% | 1008.5 hPa | 0 mm | 0.45 m/s, 178° | - | - |
| 1777969627 | 25.56° C | 36% | 1008.5 hPa | 0 mm | 0.45 m/s, 178° | - | - |
| 1777969623 | 25.56° C | 36% | 1008.5 hPa | 0 mm | 0.45 m/s, 178° | - | - |
| 1777969623 | 25.56° C | 36% | 1008.5 hPa | 0 mm | 0.45 m/s, 178° | - | - |
| 1777969623 | 25.56° C | 36% | 1008.5 hPa | 0 mm | 0.45 m/s, 178° | - | - |
| 1777969317 | 25° C | 38% | 1008.6 hPa | 0 mm | 0.45 m/s, 173° | - | - |
| 1777969317 | 25° C | 38% | 1008.6 hPa | 0 mm | 0.45 m/s, 173° | - | - |
| 1777969015 | 23.89° C | 40% | 1008.6 hPa | 0 mm | 0.45 m/s, 109° | - | - |
| 1777969014 | 23.89° C | 40% | 1008.6 hPa | 0 mm | 0.45 m/s, 109° | - | - |
* Rain latest hour (hover to see other rain measurements)
** Current wind speed in m/s (hover to see current wind gust speed)